Location: Newark
(25.4297°S, 49.2719°W)
Time: 17:29:48
(UTC+00:00)

Hubble Space Telescope - Pass Details

Date: 27 June 2021
Orbit: 535 x 539 km, 28.5° (Epoch: 25 July)

Event Time Altitude Azimuth Distance (km) Brightness Sun altitude
Rises 21:55:31 0° 332° (NNW) 2,659 5.0 -17.3°
Reaches altitude 10° 21:58:44 10° 358° (N) 1,775 3.7 -17.9°
Maximum altitude 22:00:51 14° 29° (NNE) 1,556 3.0 -18.4°
Enters shadow 22:01:28 13° 39° (NE) 1,578 2.9 -18.5°
